EN

Hourly Weather Dzierzecin

Today, 29 October, Thursday

Time Temperature Precipitation Wind Pressure Humidity
00:00 +7°C° 0 mm 6 mps 751 mmHg 91%
01:00 +7°C° 0 mm 6 mps 751 mmHg 92%
02:00 +7°C° 0 mm 6 mps 751 mmHg 93%
03:00 +7°C° 0 mm 6 mps 751 mmHg 93%
04:00 +7°C° 0 mm 6 mps 750 mmHg 94%
05:00 +7°C° 0 mm 6 mps 750 mmHg 93%
06:00 +7°C° 0 mm 6 mps 750 mmHg 93%
07:00 +7°C° 0 mm 6 mps 750 mmHg 92%
08:00 +6°C° 0.1 mm 7 mps 750 mmHg 89%
09:00 +8°C° 0.1 mm 7 mps 749 mmHg 86%
10:00 +9°C° 0.1 mm 7 mps 749 mmHg 83%
11:00 +9°C° 0.4 mm 8 mps 749 mmHg 82%
12:00 +9°C° 0.4 mm 8 mps 749 mmHg 80%
13:00 +9°C° 0.4 mm 8 mps 749 mmHg 79%
14:00 +8°C° 0.7 mm 9 mps 750 mmHg 80%
15:00 +8°C° 0.7 mm 9 mps 750 mmHg 80%
16:00 +8°C° 0.7 mm 10 mps 750 mmHg 81%
17:00 +8°C° 0.6 mm 10 mps 751 mmHg 80%
18:00 +8°C° 0.6 mm 10 mps 751 mmHg 79%
19:00 +8°C° 0.6 mm 10 mps 751 mmHg 78%
20:00 +8°C° 0.7 mm 9 mps 752 mmHg 78%
21:00 +8°C° 0.7 mm 9 mps 752 mmHg 78%
22:00 +8°C° 0.7 mm 9 mps 752 mmHg 79%
23:00 +9°C° 0.1 mm 8 mps 753 mmHg 81%

Tomorrow, 30 October, Friday

Time Temperature Precipitation Wind Pressure Humidity
00:00 +8°C° 0.1 mm 7 mps 753 mmHg 84%
01:00 +8°C° 0.1 mm 7 mps 754 mmHg 86%
02:00 +8°C° 0.1 mm 7 mps 754 mmHg 87%
03:00 +8°C° 0.1 mm 7 mps 754 mmHg 88%
04:00 +8°C° 0.1 mm 6 mps 754 mmHg 88%
05:00 +7°C° 0.1 mm 6 mps 754 mmHg 89%
06:00 +7°C° 0.1 mm 6 mps 754 mmHg 90%
07:00 +5°C° 0.1 mm 6 mps 754 mmHg 91%
08:00 +6°C° 0 mm 5 mps 754 mmHg 88%
09:00 +7°C° 0 mm 5 mps 754 mmHg 85%
10:00 +7°C° 0 mm 4 mps 754 mmHg 83%
11:00 +7°C° 0.2 mm 4 mps 754 mmHg 83%
12:00 +8°C° 0.2 mm 4 mps 754 mmHg 84%
13:00 +9°C° 0.2 mm 3 mps 754 mmHg 85%
14:00 +9°C° 0.2 mm 3 mps 754 mmHg 87%
15:00 +8°C° 0.2 mm 2 mps 754 mmHg 89%
16:00 +8°C° 0.2 mm 2 mps 754 mmHg 90%
17:00 +8°C° 0 mm 2 mps 754 mmHg 91%
18:00 +8°C° 0 mm 2 mps 755 mmHg 91%
19:00 +8°C° 0 mm 2 mps 755 mmHg 91%
20:00 +8°C° 0 mm 2 mps 756 mmHg 92%
21:00 +8°C° 0 mm 2 mps 756 mmHg 92%
22:00 +8°C° 0 mm 2 mps 757 mmHg 92%
23:00 +8°C° 0 mm 2 mps 757 mmHg 92%

Day after tomorrow, 31 October, Saturday

Time Temperature Precipitation Wind Pressure Humidity
00:00 +7°C° 0 mm 2 mps 757 mmHg 92%
01:00 +7°C° 0 mm 2 mps 757 mmHg 92%
02:00 +7°C° 0 mm 2 mps 758 mmHg 91%
03:00 +7°C° 0 mm 2 mps 758 mmHg 91%
04:00 +7°C° 0 mm 2 mps 759 mmHg 90%
05:00 +7°C° 0 mm 3 mps 759 mmHg 89%
06:00 +7°C° 0 mm 3 mps 760 mmHg 88%
07:00 +7°C° 0 mm 3 mps 760 mmHg 87%
08:00 +8°C° 0 mm 3 mps 760 mmHg 82%
09:00 +9°C° 0 mm 3 mps 761 mmHg 78%
10:00 +10°C° 0 mm 4 mps 761 mmHg 73%
11:00 +10°C° 0 mm 4 mps 761 mmHg 71%
12:00 +11°C° 0 mm 4 mps 761 mmHg 68%
13:00 +12°C° 0 mm 4 mps 761 mmHg 66%
14:00 +11°C° 0 mm 4 mps 761 mmHg 69%
15:00 +11°C° 0 mm 4 mps 761 mmHg 72%
16:00 +10°C° 0 mm 3 mps 761 mmHg 75%
17:00 +10°C° 0 mm 4 mps 761 mmHg 76%
18:00 +8°C° 0 mm 5 mps 761 mmHg 77%
19:00 +8°C° 0 mm 5 mps 761 mmHg 78%
20:00 +8°C° 0 mm 5 mps 761 mmHg 77%
21:00 +8°C° 0 mm 6 mps 761 mmHg 76%
22:00 +8°C° 0 mm 6 mps 761 mmHg 75%
23:00 +7°C° 0 mm 6 mps 761 mmHg 75%

1 November, Sunday

Time Temperature Precipitation Wind Pressure Humidity
00:00 +6°C° 0 mm 7 mps 761 mmHg 76%
01:00 +6°C° 0 mm 7 mps 761 mmHg 77%
02:00 +6°C° 0 mm 7 mps 760 mmHg 78%
03:00 +6°C° 0 mm 7 mps 760 mmHg 79%
04:00 +6°C° 0 mm 8 mps 760 mmHg 80%
05:00 +6°C° 0 mm 8 mps 759 mmHg 79%
06:00 +6°C° 0 mm 7 mps 759 mmHg 78%
07:00 +6°C° 0 mm 7 mps 759 mmHg 77%
08:00 +7°C° 0 mm 8 mps 759 mmHg 73%
09:00 +9°C° 0 mm 8 mps 759 mmHg 69%
10:00 +8°C° 0 mm 9 mps 758 mmHg 65%
11:00 +10°C° 0 mm 9 mps 758 mmHg 63%
12:00 +11°C° 0 mm 9 mps 757 mmHg 62%
13:00 +11°C° 0 mm 9 mps 757 mmHg 60%
14:00 +11°C° 0 mm 9 mps 757 mmHg 62%
15:00 +10°C° 0 mm 9 mps 756 mmHg 64%
16:00 +10°C° 0 mm 9 mps 756 mmHg 66%
17:00 +10°C° 0 mm 9 mps 756 mmHg 68%
18:00 +10°C° 0 mm 9 mps 756 mmHg 70%
19:00 +8°C° 0 mm 9 mps 755 mmHg 73%
20:00 +8°C° 0 mm 9 mps 755 mmHg 75%
21:00 +8°C° 0 mm 9 mps 755 mmHg 76%
22:00 +8°C° 0 mm 9 mps 755 mmHg 78%
23:00 +9°C° 0 mm 8 mps 755 mmHg 80%

2 November, Monday

Time Temperature Precipitation Wind Pressure Humidity
00:00 +9°C° 0 mm 8 mps 755 mmHg 82%
01:00 +9°C° 0 mm 8 mps 755 mmHg 84%
02:00 +9°C° 0 mm 8 mps 755 mmHg 84%
03:00 +9°C° 0 mm 7 mps 754 mmHg 84%
04:00 +9°C° 0 mm 7 mps 754 mmHg 84%
05:00 +9°C° 0 mm 7 mps 754 mmHg 85%
06:00 +9°C° 0 mm 7 mps 754 mmHg 86%
07:00 +9°C° 0 mm 7 mps 754 mmHg 87%
08:00 +10°C° 0 mm 7 mps 754 mmHg 83%
09:00 +11°C° 0 mm 7 mps 754 mmHg 80%
10:00 +12°C° 0 mm 7 mps 754 mmHg 76%
11:00 +14°C° 0 mm 7 mps 754 mmHg 75%
12:00 +14°C° 0 mm 7 mps 754 mmHg 74%
13:00 +15°C° 0 mm 7 mps 754 mmHg 72%
14:00 +15°C° 0 mm 7 mps 754 mmHg 74%
15:00 +14°C° 0 mm 7 mps 754 mmHg 75%
16:00 +14°C° 0 mm 7 mps 753 mmHg 77%
17:00 +14°C° 0 mm 7 mps 754 mmHg 78%
18:00 +12°C° 0 mm 7 mps 754 mmHg 80%
19:00 +12°C° 0 mm 7 mps 754 mmHg 81%
20:00 +12°C° 0 mm 7 mps 754 mmHg 82%
21:00 +12°C° 0 mm 7 mps 754 mmHg 83%
22:00 +12°C° 0 mm 7 mps 754 mmHg 84%
23:00 +12°C° 0 mm 7 mps 754 mmHg 85%

3 November, Tuesday

Time Temperature Precipitation Wind Pressure Humidity
00:00 +12°C° 0 mm 7 mps 754 mmHg 85%
01:00 +12°C° 0 mm 7 mps 754 mmHg 86%
02:00 +13°C° 0.1 mm 6 mps 754 mmHg 87%
03:00 +13°C° 0.1 mm 6 mps 754 mmHg 88%
04:00 +13°C° 0.1 mm 6 mps 755 mmHg 89%
05:00 +13°C° 0.2 mm 5 mps 755 mmHg 91%
06:00 +13°C° 0.2 mm 5 mps 756 mmHg 92%
07:00 +13°C° 0.2 mm 4 mps 756 mmHg 94%
08:00 +12°C° 0.6 mm 4 mps 757 mmHg 94%
09:00 +12°C° 0.6 mm 4 mps 757 mmHg 94%
10:00 +12°C° 0.6 mm 4 mps 757 mmHg 94%
11:00 +12°C° 0.6 mm 3 mps 758 mmHg 92%
12:00 +11°C° 0.6 mm 3 mps 758 mmHg 91%
13:00 +11°C° 0.6 mm 3 mps 759 mmHg 89%
14:00 +12°C° 0.2 mm 2 mps 759 mmHg 89%
15:00 +12°C° 0.2 mm 2 mps 759 mmHg 89%
16:00 +12°C° 0.2 mm 1 mps 760 mmHg 88%
17:00 +12°C° 0.1 mm 2 mps 760 mmHg 88%
18:00 +10°C° 0.1 mm 2 mps 760 mmHg 88%
19:00 +10°C° 0.1 mm 2 mps 761 mmHg 88%
20:00 +10°C° 0.1 mm 2 mps 761 mmHg 88%
21:00 +10°C° 0.1 mm 2 mps 761 mmHg 89%
22:00 +10°C° 0.1 mm 1 mps 761 mmHg 89%
23:00 +9°C° 0.2 mm 2 mps 761 mmHg 90%
Show more